,,,PA_Meas_PMT16A,,PR_Meas_QMR101_102,,RH_Meas_QMH101,,SR_Meas_QMS101,,TA_Meas_QMH101,,GenWind,,GenWind,
date,time,status,PA,status,PR,status,RH,status,SR,status,TA,status,DirAvg,status,SpdAvg,
2008-11-30, 00:00:04,VALID,1011,VALID,0,VALID,94.4831,VALID,0,VALID,24.7269,VALID,45,VALID,0.267188,
2008-11-30, 00:01:04,VALID,1010.98,VALID,0,VALID,94.4983,VALID,0,VALID,24.7074,VALID,45,VALID,0.150391,
2008-11-30, 00:02:04,VALID,1010.97,VALID,0,VALID,94.4983,VALID,0,VALID,24.7269,VALID,45,VALID,0.222656,
2008-11-30, 00:03:04,VALID,1010.97,VALID,0,VALID,94.4602,VALID,0,VALID,24.7055,VALID,45,VALID,0.103125,
2008-11-30, 00:04:04,VALID,1010.97,VALID,0,VALID,94.4602,VALID,0,VALID,24.7074,VALID,45,VALID,0,
2008-11-30, 00:05:04,VALID,1010.95,VALID,0,VALID,94.4373,VALID,0,VALID,24.7074,VALID,45,VALID,0,
2008-11-30, 00:06:04,VALID,1010.96,VALID,0,VALID,94.4145,VALID,0,VALID,24.6879,VALID,45,VALID,0,
2008-11-30, 00:07:04,VALID,1010.96,VALID,0,VALID,94.3687,VALID,0,VALID,24.6684,VALID,46,VALID,0,
2008-11-30, 00:08:04,VALID,1010.93,VALID,0,VALID,94.3763,VALID,0,VALID,24.6489,VALID,45,VALID,0,
2008-11-30, 00:09:04,VALID,1010.94,VALID,0,VALID,94.3611,VALID,0,VALID,24.6294,VALID,45,VALID,0.100391,
2008-11-30, 00:10:04,VALID,1010.9,VALID,0,VALID,94.3458,VALID,0,VALID,24.6099,VALID,45,VALID,0.134766,
2008-11-30, 00:11:04,VALID,1010.91,VALID,0,VALID,94.3458,VALID,0,VALID,24.5691,VALID,45,VALID,0.155469,
2008-11-30, 00:12:04,VALID,1010.9,VALID,0,VALID,94.3382,VALID,0,VALID,24.571,VALID,45,VALID,0.175391,
2008-11-30, 00:13:04,VALID,1010.88,VALID,0,VALID,94.3611,VALID,0,VALID,24.5515,VALID,46,VALID,0.165625,
2008-11-30, 00:14:04,VALID,1010.89,VALID,0,VALID,94.3992,VALID,0,VALID,24.5515,VALID,46,VALID,0,
2008-11-30, 00:15:04,VALID,1010.91,VALID,0,VALID,94.4145,VALID,0,VALID,24.5515,VALID,45,VALID,0,
2008-11-30, 00:16:04,VALID,1010.91,VALID,0,VALID,94.4373,VALID,0,VALID,24.532,VALID,46,VALID,0,
2008-11-30, 00:17:04,VALID,1010.9,VALID,0,VALID,94.4526,VALID,0,VALID,24.5125,VALID,45,VALID,0,
2008-11-30, 00:18:04,VALID,1010.91,VALID,0,VALID,94.4678,VALID,0,VALID,24.493,VALID,45,VALID,0,
2008-11-30, 00:19:04,VALID,1010.9,VALID,0,VALID,94.4831,VALID,0,VALID,24.5125,VALID,45,VALID,0,
2008-11-30, 00:20:04,VALID,1010.9,VALID,0,VALID,94.4907,VALID,0,VALID,24.493,VALID,45,VALID,0,
2008-11-30, 00:21:04,VALID,1010.9,VALID,0,VALID,94.5365,VALID,0,VALID,24.4735,VALID,45,VALID,0,
2008-11-30, 00:22:04,VALID,1010.89,VALID,0,VALID,94.5593,VALID,0,VALID,24.454,VALID,45,VALID,0,
2008-11-30, 00:23:04,VALID,1010.89,VALID,0,VALID,94.567,VALID,0,VALID,24.4345,VALID,45,VALID,0.300781,
2008-11-30, 00:24:04,VALID,1010.87,VALID,0,VALID,94.5975,VALID,0,VALID,24.4345,VALID,46,VALID,0.31875,
2008-11-30, 00:25:04,VALID,1010.86,VALID,0,VALID,94.6203,VALID,0,VALID,24.4345,VALID,46,VALID,0.0921875,
2008-11-30, 00:26:04,VALID,1010.81,VALID,0,VALID,94.628,VALID,0,VALID,24.415,VALID,45,VALID,0.0988281,
2008-11-30, 00:27:04,VALID,1010.8,VALID,0,VALID,94.6432,VALID,0,VALID,24.415,VALID,45,VALID,0,
2008-11-30, 00:28:04,VALID,1010.77,VALID,0,VALID,94.6661,VALID,0,VALID,24.3956,VALID,45,VALID,0,
2008-11-30, 00:29:04,VALID,1010.8,VALID,0,VALID,94.6661,VALID,0,VALID,24.3956,VALID,45,VALID,0,
2008-11-30, 00:30:04,VALID,1010.77,VALID,0,VALID,94.7042,VALID,0,VALID,24.3974,VALID,45,VALID,0,
2008-11-30, 00:31:04,VALID,1010.78,VALID,0,VALID,94.7042,VALID,0,VALID,24.3761,VALID,45,VALID,0,
2008-11-30, 00:32:04,VALID,1010.79,VALID,0,VALID,94.7195,VALID,0,VALID,24.3761,VALID,45,VALID,0,
2008-11-30, 00:33:04,VALID,1010.8,VALID,0,VALID,94.7347,VALID,0,VALID,24.3761,VALID,45,VALID,0,
2008-11-30, 00:34:04,VALID,1010.78,VALID,0,VALID,94.7576,VALID,0,VALID,24.3761,VALID,45,VALID,0,
2008-11-30, 00:35:04,VALID,1010.8,VALID,0,VALID,94.7729,VALID,0,VALID,24.3761,VALID,45,VALID,0,
2008-11-30, 00:36:04,VALID,1010.79,VALID,0,VALID,94.7805,VALID,0,VALID,24.3956,VALID,46,VALID,0,
2008-11-30, 00:37:04,VALID,1010.78,VALID,0,VALID,94.7957,VALID,0,VALID,24.3956,VALID,45,VALID,0,
2008-11-30, 00:38:04,VALID,1010.77,VALID,0,VALID,94.811,VALID,0,VALID,24.3956,VALID,45,VALID,0,
2008-11-30, 00:39:04,VALID,1010.77,VALID,0,VALID,94.8262,VALID,0,VALID,24.415,VALID,45,VALID,0.0589844,
2008-11-30, 00:40:04,VALID,1010.74,VALID,0,VALID,94.8339,VALID,0,VALID,24.415,VALID,45,VALID,0.0550781,
2008-11-30, 00:41:04,VALID,1010.75,VALID,0,VALID,94.8262,VALID,0,VALID,24.3956,VALID,45,VALID,0,
2008-11-30, 00:42:04,VALID,1010.7,VALID,0,VALID,94.811,VALID,0,VALID,24.3956,VALID,46,VALID,0.297266,
2008-11-30, 00:43:04,VALID,1010.72,VALID,0,VALID,94.811,VALID,0,VALID,24.415,VALID,45,VALID,0.196875,
2008-11-30, 00:44:04,VALID,1010.69,VALID,0,VALID,94.8262,VALID,0,VALID,24.415,VALID,46,VALID,0.0210938,
2008-11-30, 00:45:04,VALID,1010.7,VALID,0,VALID,94.7957,VALID,0,VALID,24.3956,VALID,46,VALID,0.134766,
2008-11-30, 00:46:04,VALID,1010.69,VALID,0,VALID,94.7805,VALID,0,VALID,24.3956,VALID,46,VALID,0.162891,
2008-11-30, 00:47:04,VALID,1010.67,VALID,0,VALID,94.75,VALID,0,VALID,24.3761,VALID,45,VALID,0,
2008-11-30, 00:48:04,VALID,1010.66,VALID,0,VALID,94.7195,VALID,0,VALID,24.3761,VALID,46,VALID,0,
2008-11-30, 00:49:04,VALID,1010.66,VALID,0,VALID,94.6814,VALID,0,VALID,24.3761,VALID,45,VALID,0,
2008-11-30, 00:50:04,VALID,1010.63,VALID,0,VALID,94.6814,VALID,0,VALID,24.3566,VALID,45,VALID,0,
2008-11-30, 00:51:04,VALID,1010.58,VALID,0,VALID,94.6814,VALID,0,VALID,24.3371,VALID,45,VALID,0,
2008-11-30, 00:52:04,VALID,1010.55,VALID,0,VALID,94.6585,VALID,0,VALID,24.3371,VALID,45,VALID,0,
2008-11-30, 00:53:04,VALID,1010.55,VALID,0,VALID,94.6127,VALID,0,VALID,24.3371,VALID,46,VALID,0,
2008-11-30, 00:54:04,VALID,1010.52,VALID,0,VALID,94.5975,VALID,0,VALID,24.3176,VALID,45,VALID,0,
2008-11-30, 00:55:04,VALID,1010.51,VALID,0,VALID,94.5975,VALID,0.105969,VALID,24.2963,VALID,45,VALID,0.114453,
2008-11-30, 00:56:04,VALID,1010.47,VALID,0,VALID,94.5822,VALID,0,VALID,24.3176,VALID,45,VALID,0,
2008-11-30, 00:57:04,VALID,1010.43,VALID,0,VALID,94.5898,VALID,0,VALID,24.3176,VALID,45,VALID,0,
2008-11-30, 00:58:04,VALID,1010.4,VALID,0,VALID,94.5822,VALID,0,VALID,24.2768,VALID,45,VALID,0.135547,
2008-11-30, 00:59:04,VALID,1010.4,VALID,0,VALID,94.5898,VALID,0,VALID,24.2981,VALID,45,VALID,0,
2008-11-30, 01:00:04,VALID,1010.36,VALID,0,VALID,94.567,VALID,0,VALID,24.2981,VALID,45,VALID,0.0113281,
2008-11-30, 01:01:04,VALID,1010.33,VALID,0,VALID,94.5746,VALID,0,VALID,24.2768,VALID,45,VALID,0.0988281,
2008-11-30, 01:02:04,VALID,1010.3,VALID,0,VALID,94.567,VALID,0.105969,VALID,24.2786,VALID,45,VALID,0,
2008-11-30, 01:03:04,VALID,1010.33,VALID,0,VALID,94.5441,VALID,0,VALID,24.2573,VALID,46,VALID,0,
2008-11-30, 01:04:04,VALID,1010.32,VALID,0,VALID,94.5288,VALID,0.105969,VALID,24.2378,VALID,45,VALID,0.0933594,
2008-11-30, 01:05:04,VALID,1010.32,VALID,0,VALID,94.5441,VALID,0,VALID,24.2183,VALID,45,VALID,0.0816406,
2008-11-30, 01:06:04,VALID,1010.31,VALID,0,VALID,94.5136,VALID,0,VALID,24.2183,VALID,45,VALID,0.0140625,
2008-11-30, 01:07:04,VALID,1010.32,VALID,0,VALID,94.5441,VALID,0,VALID,24.2007,VALID,45,VALID,0.0617188,
2008-11-30, 01:08:04,VALID,1010.29,VALID,0,VALID,94.5136,VALID,0,VALID,24.2007,VALID,45,VALID,0.226172,
2008-11-30, 01:09:04,VALID,1010.25,VALID,0,VALID,94.5365,VALID,0,VALID,24.1812,VALID,46,VALID,0.161719,
2008-11-30, 01:10:04,VALID,1010.21,VALID,0,VALID,94.5441,VALID,0,VALID,24.1599,VALID,46,VALID,0.216797,
2008-11-30, 01:11:04,VALID,1010.21,VALID,0,VALID,94.5517,VALID,0,VALID,24.1617,VALID,45,VALID,0.0015625,
2008-11-30, 01:12:04,VALID,1010.2,VALID,0,VALID,94.5365,VALID,0,VALID,24.1617,VALID,45,VALID,0.0109375,
2008-11-30, 01:13:04,VALID,1010.18,VALID,0,VALID,94.5517,VALID,0,VALID,24.1422,VALID,45,VALID,0,
2008-11-30, 01:14:04,VALID,1010.17,VALID,0,VALID,94.5746,VALID,0,VALID,24.1422,VALID,45,VALID,0,
2008-11-30, 01:15:04,VALID,1010.15,VALID,0,VALID,94.5822,VALID,0,VALID,24.1422,VALID,45,VALID,0,
2008-11-30, 01:16:04,VALID,1010.13,VALID,0,VALID,94.5898,VALID,0,VALID,24.1209,VALID,45,VALID,0,
2008-11-30, 01:17:04,VALID,1010.11,VALID,0,VALID,94.5975,VALID,0,VALID,24.1227,VALID,45,VALID,0,
2008-11-30, 01:18:04,VALID,1010.12,VALID,0,VALID,94.6127,VALID,0,VALID,24.1227,VALID,45,VALID,0,
2008-11-30, 01:19:04,VALID,1010.16,VALID,0,VALID,94.6127,VALID,0,VALID,24.1032,VALID,45,VALID,0,
2008-11-30, 01:20:04,VALID,1010.18,VALID,0,VALID,94.6203,VALID,0,VALID,24.1032,VALID,45,VALID,0,
2008-11-30, 01:21:04,VALID,1010.17,VALID,0,VALID,94.6508,VALID,0,VALID,24.1032,VALID,45,VALID,0,
2008-11-30, 01:22:04,VALID,1010.19,VALID,0,VALID,94.6737,VALID,0,VALID,24.1032,VALID,46,VALID,0,
2008-11-30, 01:23:04,VALID,1010.19,VALID,0,VALID,94.6661,VALID,0,VALID,24.1422,VALID,46,VALID,0,
2008-11-30, 01:24:04,VALID,1010.19,VALID,0,VALID,94.7119,VALID,0.105969,VALID,24.1209,VALID,45,VALID,0,
2008-11-30, 01:25:04,VALID,1010.17,VALID,0,VALID,94.6966,VALID,0,VALID,24.1422,VALID,45,VALID,0,
2008-11-30, 01:26:04,VALID,1010.16,VALID,0,VALID,94.6966,VALID,0,VALID,24.1422,VALID,45,VALID,0,
2008-11-30, 01:27:04,VALID,1010.11,VALID,0,VALID,94.6966,VALID,0.105969,VALID,24.1014,VALID,45,VALID,0,
2008-11-30, 01:28:04,VALID,1010.09,VALID,0,VALID,94.7042,VALID,0,VALID,24.1209,VALID,45,VALID,0,
2008-11-30, 01:29:04,VALID,1010.09,VALID,0,VALID,94.6966,VALID,0.105969,VALID,24.1227,VALID,45,VALID,0,
2008-11-30, 01:30:04,VALID,1010.06,VALID,0,VALID,94.6966,VALID,0,VALID,24.1227,VALID,45,VALID,0,
2008-11-30, 01:31:04,VALID,1010.03,VALID,0,VALID,94.6814,VALID,0,VALID,24.1422,VALID,45,VALID,0,
2008-11-30, 01:32:04,VALID,1010,VALID,0,VALID,94.6585,VALID,0,VALID,24.1227,VALID,45,VALID,0,
2008-11-30, 01:33:04,VALID,1009.96,VALID,0,VALID,94.6661,VALID,0,VALID,24.1032,VALID,45,VALID,0,
2008-11-30, 01:34:04,VALID,1009.96,VALID,0,VALID,94.6432,VALID,0,VALID,24.0624,VALID,45,VALID,0,
2008-11-30, 01:35:04,VALID,1009.92,VALID,0,VALID,94.6356,VALID,0,VALID,24.0643,VALID,45,VALID,0,
2008-11-30, 01:36:04,VALID,1009.92,VALID,0,VALID,94.6127,VALID,0,VALID,24.0448,VALID,45,VALID,0,
2008-11-30, 01:37:04,VALID,1009.9,VALID,0,VALID,94.5975,VALID,0,VALID,24.0643,VALID,45,VALID,0,
2008-11-30, 01:38:04,VALID,1009.89,VALID,0,VALID,94.5975,VALID,0,VALID,24.0448,VALID,45,VALID,0,
2008-11-30, 01:39:04,VALID,1009.91,VALID,0,VALID,94.5898,VALID,0,VALID,24.0253,VALID,45,VALID,0,
2008-11-30, 01:40:04,VALID,1009.87,VALID,0,VALID,94.5822,VALID,0,VALID,24.0058,VALID,45,VALID,0,
2008-11-30, 01:41:04,VALID,1009.89,VALID,0,VALID,94.567,VALID,0,VALID,24.0058,VALID,45,VALID,0,
2008-11-30, 01:42:04,VALID,1009.89,VALID,0,VALID,94.5593,VALID,0,VALID,24.0058,VALID,45,VALID,0,
2008-11-30, 01:43:04,VALID,1009.84,VALID,0,VALID,94.5746,VALID,0,VALID,24.0058,VALID,45,VALID,0,
2008-11-30, 01:44:04,VALID,1009.84,VALID,0,VALID,94.5746,VALID,0,VALID,23.9863,VALID,45,VALID,0,
2008-11-30, 01:45:04,VALID,1009.83,VALID,0,VALID,94.5441,VALID,0,VALID,23.9668,VALID,45,VALID,0,
2008-11-30, 01:46:04,VALID,1009.83,VALID,0,VALID,94.5593,VALID,0,VALID,23.9473,VALID,29,VALID,0,
2008-11-30, 01:47:04,VALID,1009.84,VALID,0,VALID,94.5517,VALID,0,VALID,23.9881,VALID,314,VALID,0,
2008-11-30, 01:48:04,VALID,1009.85,VALID,0,VALID,94.5441,VALID,0,VALID,23.9473,VALID,314,VALID,0.0953125,
2008-11-30, 01:49:04,VALID,1009.88,VALID,0,VALID,94.5441,VALID,0,VALID,23.9278,VALID,314,VALID,0.124219,
2008-11-30, 01:50:04,VALID,1009.86,VALID,0,VALID,94.5288,VALID,0,VALID,23.9278,VALID,314,VALID,0.117578,
2008-11-30, 01:51:04,VALID,1009.89,VALID,0,VALID,94.5212,VALID,0,VALID,23.9473,VALID,314,VALID,0,
2008-11-30, 01:52:04,VALID,1009.88,VALID,0,VALID,94.5212,VALID,0,VALID,23.9278,VALID,314,VALID,0,
2008-11-30, 01:53:04,VALID,1009.85,VALID,0,VALID,94.4983,VALID,0,VALID,23.9278,VALID,11,VALID,0.298828,
2008-11-30, 01:54:04,VALID,1009.85,VALID,0,VALID,94.4983,VALID,0,VALID,23.9278,VALID,11,VALID,0,
2008-11-30, 01:55:04,VALID,1009.83,VALID,0,VALID,94.4831,VALID,0,VALID,23.9278,VALID,9,VALID,0.255859,
2008-11-30, 01:56:04,VALID,1009.81,VALID,0,VALID,94.4678,VALID,0,VALID,23.9473,VALID,357,VALID,0.365625,
2008-11-30, 01:57:04,VALID,1009.83,VALID,0,VALID,94.445,VALID,0,VALID,23.926,VALID,356,VALID,0.201953,
2008-11-30, 01:58:04,VALID,1009.81,VALID,0,VALID,94.4068,VALID,0,VALID,23.9473,VALID,356,VALID,0.00742187,
2008-11-30, 01:59:04,VALID,1009.8,VALID,0,VALID,94.3687,VALID,0,VALID,23.9278,VALID,356,VALID,0,
2008-11-30, 02:00:04,VALID,1009.81,VALID,0,VALID,94.3458,VALID,0,VALID,23.9084,VALID,356,VALID,0.160938,
2008-11-30, 02:01:04,VALID,1009.78,VALID,0,VALID,94.3306,VALID,0,VALID,23.9084,VALID,32,VALID,0.391406,
2008-11-30, 02:02:04,VALID,1009.8,VALID,0,VALID,94.2848,VALID,0,VALID,23.9084,VALID,37,VALID,0.326172,
2008-11-30, 02:03:04,VALID,1009.79,VALID,0,VALID,94.2772,VALID,0,VALID,23.8889,VALID,37,VALID,0.283984,
2008-11-30, 02:04:04,VALID,1009.79,VALID,0,VALID,94.2543,VALID,0,VALID,23.8889,VALID,37,VALID,0.314844,
2008-11-30, 02:05:04,VALID,1009.81,VALID,0,VALID,94.2086,VALID,0,VALID,23.8694,VALID,37,VALID,0,
2008-11-30, 02:06:04,VALID,1009.79,VALID,0,VALID,94.2467,VALID,0,VALID,23.8499,VALID,37,VALID,0,
2008-11-30, 02:07:04,VALID,1009.8,VALID,0,VALID,94.2467,VALID,0,VALID,23.8499,VALID,37,VALID,0,
2008-11-30, 02:08:04,VALID,1009.81,VALID,0,VALID,94.2543,VALID,0,VALID,23.8499,VALID,37,VALID,0,
2008-11-30, 02:09:04,VALID,1009.8,VALID,0,VALID,94.2848,VALID,0,VALID,23.8304,VALID,37,VALID,0,
2008-11-30, 02:10:04,VALID,1009.79,VALID,0,VALID,94.3077,VALID,0,VALID,23.8304,VALID,37,VALID,0,
2008-11-30, 02:11:04,VALID,1009.79,VALID,0,VALID,94.3306,VALID,0,VALID,23.8304,VALID,37,VALID,0,
2008-11-30, 02:12:04,VALID,1009.8,VALID,0,VALID,94.3382,VALID,0.105969,VALID,23.8304,VALID,37,VALID,0,
2008-11-30, 02:13:04,VALID,1009.79,VALID,0,VALID,94.3916,VALID,0,VALID,23.8304,VALID,37,VALID,0.165234,
2008-11-30, 02:14:04,VALID,1009.77,VALID,0,VALID,94.4145,VALID,0,VALID,23.8304,VALID,37,VALID,0.137891,
2008-11-30, 02:15:04,VALID,1009.77,VALID,0,VALID,94.4068,VALID,0,VALID,23.8304,VALID,37,VALID,0.171094,
2008-11-30, 02:16:04,VALID,1009.78,VALID,0,VALID,94.4297,VALID,0,VALID,23.8304,VALID,37,VALID,0.173438,
2008-11-30, 02:17:04,VALID,1009.77,VALID,0,VALID,94.4373,VALID,0,VALID,23.8304,VALID,37,VALID,0.111328,
2008-11-30, 02:18:04,VALID,1009.73,VALID,0,VALID,94.4221,VALID,0,VALID,23.8304,VALID,37,VALID,0.0625,
2008-11-30, 02:19:04,VALID,1009.74,VALID,0,VALID,94.4297,VALID,0,VALID,23.8304,VALID,37,VALID,0.0773437,
2008-11-30, 02:20:04,VALID,1009.73,VALID,0,VALID,94.3992,VALID,0,VALID,23.8304,VALID,37,VALID,0,
2008-11-30, 02:21:04,VALID,1009.73,VALID,0,VALID,94.3916,VALID,0,VALID,23.8109,VALID,37,VALID,0,
2008-11-30, 02:22:04,VALID,1009.72,VALID,0,VALID,94.3839,VALID,0,VALID,23.8304,VALID,37,VALID,0,
2008-11-30, 02:23:04,VALID,1009.72,VALID,0,VALID,94.3763,VALID,0,VALID,23.8304,VALID,37,VALID,0,
2008-11-30, 02:24:04,VALID,1009.69,VALID,0,VALID,94.3839,VALID,0,VALID,23.8109,VALID,37,VALID,0,
2008-11-30, 02:25:04,VALID,1009.65,VALID,0,VALID,94.3839,VALID,0,VALID,23.8109,VALID,37,VALID,0,
2008-11-30, 02:26:04,VALID,1009.65,VALID,0,VALID,94.3916,VALID,0,VALID,23.8304,VALID,37,VALID,0,
2008-11-30, 02:27:04,VALID,1009.64,VALID,0,VALID,94.4068,VALID,0,VALID,23.8109,VALID,37,VALID,0,
2008-11-30, 02:28:04,VALID,1009.63,VALID,0,VALID,94.4068,VALID,0,VALID,23.8109,VALID,37,VALID,0,
2008-11-30, 02:29:04,VALID,1009.6,VALID,0,VALID,94.4221,VALID,0,VALID,23.7914,VALID,37,VALID,0.00234375,
2008-11-30, 02:30:04,VALID,1009.58,VALID,0,VALID,94.3839,VALID,0,VALID,23.7914,VALID,37,VALID,0.132422,
2008-11-30, 02:31:04,VALID,1009.59,VALID,0,VALID,94.4221,VALID,0,VALID,23.8109,VALID,37,VALID,0.253906,
2008-11-30, 02:32:04,VALID,1009.58,VALID,0,VALID,94.4068,VALID,0,VALID,23.7914,VALID,37,VALID,0.183984,
2008-11-30, 02:33:04,VALID,1009.58,VALID,0,VALID,94.3839,VALID,0,VALID,23.7914,VALID,37,VALID,0.206641,
2008-11-30, 02:34:04,VALID,1009.54,VALID,0,VALID,94.4068,VALID,0,VALID,23.7932,VALID,37,VALID,0.237891,
2008-11-30, 02:35:04,VALID,1009.58,VALID,0,VALID,94.3763,VALID,0,VALID,23.772,VALID,37,VALID,0.227734,
2008-11-30, 02:36:04,VALID,1009.57,VALID,0,VALID,94.3687,VALID,0,VALID,23.772,VALID,37,VALID,0.144922,
2008-11-30, 02:37:04,VALID,1009.55,VALID,0,VALID,94.3534,VALID,0,VALID,23.733,VALID,37,VALID,0,
2008-11-30, 02:38:04,VALID,1009.57,VALID,0,VALID,94.3763,VALID,0,VALID,23.733,VALID,37,VALID,0,
2008-11-30, 02:39:04,VALID,1009.55,VALID,0,VALID,94.3763,VALID,0,VALID,23.733,VALID,37,VALID,0,
2008-11-30, 02:40:04,VALID,1009.55,VALID,0,VALID,94.3687,VALID,0,VALID,23.7135,VALID,37,VALID,0,
2008-11-30, 02:41:04,VALID,1009.57,VALID,0,VALID,94.3763,VALID,0,VALID,23.6745,VALID,37,VALID,0.150781,
2008-11-30, 02:42:04,VALID,1009.55,VALID,0,VALID,94.3839,VALID,0,VALID,23.6745,VALID,37,VALID,0.187109,
2008-11-30, 02:43:04,VALID,1009.55,VALID,0,VALID,94.3916,VALID,0,VALID,23.655,VALID,37,VALID,0.229297,
2008-11-30, 02:44:04,VALID,1009.57,VALID,0,VALID,94.4068,VALID,0.105969,VALID,23.655,VALID,37,VALID,0,
2008-11-30, 02:45:04,VALID,1009.53,VALID,0,VALID,94.4068,VALID,0,VALID,23.655,VALID,37,VALID,0,
2008-11-30, 02:46:04,VALID,1009.53,VALID,0,VALID,94.4373,VALID,0,VALID,23.6161,VALID,37,VALID,0,
2008-11-30, 02:47:04,VALID,1009.55,VALID,0,VALID,94.445,VALID,0,VALID,23.6161,VALID,37,VALID,0,
2008-11-30, 02:48:04,VALID,1009.55,VALID,0,VALID,94.445,VALID,0,VALID,23.5966,VALID,37,VALID,0,
2008-11-30, 02:49:04,VALID,1009.54,VALID,0,VALID,94.4602,VALID,0,VALID,23.5966,VALID,37,VALID,0,
2008-11-30, 02:50:04,VALID,1009.59,VALID,0,VALID,94.506,VALID,0.105969,VALID,23.5966,VALID,37,VALID,0,
2008-11-30, 02:51:04,VALID,1009.58,VALID,0,VALID,94.5441,VALID,0,VALID,23.5966,VALID,37,VALID,0,
2008-11-30, 02:52:04,VALID,1009.59,VALID,0,VALID,94.5746,VALID,0,VALID,23.6161,VALID,37,VALID,0,
2008-11-30, 02:53:04,VALID,1009.6,VALID,0,VALID,94.6127,VALID,0,VALID,23.6143,VALID,37,VALID,0,
2008-11-30, 02:54:04,VALID,1009.6,VALID,0,VALID,94.6356,VALID,0,VALID,23.6161,VALID,37,VALID,0,
2008-11-30, 02:55:04,VALID,1009.58,VALID,0,VALID,94.6661,VALID,0,VALID,23.6143,VALID,37,VALID,0,
2008-11-30, 02:56:04,VALID,1009.61,VALID,0,VALID,94.689,VALID,0,VALID,23.6356,VALID,37,VALID,0,
2008-11-30, 02:57:04,VALID,1009.62,VALID,0,VALID,94.6661,VALID,0,VALID,23.6356,VALID,37,VALID,0,
2008-11-30, 02:58:04,VALID,1009.63,VALID,0,VALID,94.6737,VALID,0,VALID,23.6356,VALID,37,VALID,0,
2008-11-30, 02:59:04,VALID,1009.64,VALID,0,VALID,94.689,VALID,0,VALID,23.6161,VALID,37,VALID,0,
2008-11-30, 03:00:04,VALID,1009.67,VALID,0,VALID,94.6966,VALID,0,VALID,23.6161,VALID,37,VALID,0,
2008-11-30, 03:01:04,VALID,1009.68,VALID,0,VALID,94.6966,VALID,0.105969,VALID,23.6143,VALID,37,VALID,0,
2008-11-30, 03:02:04,VALID,1009.72,VALID,0,VALID,94.6814,VALID,0,VALID,23.5966,VALID,37,VALID,0,
2008-11-30, 03:03:04,VALID,1009.74,VALID,0,VALID,94.6661,VALID,0,VALID,23.5558,VALID,37,VALID,0,
2008-11-30, 03:04:04,VALID,1009.76,VALID,0,VALID,94.6051,VALID,0,VALID,23.5576,VALID,37,VALID,0,
2008-11-30, 03:05:04,VALID,1009.77,VALID,0,VALID,94.5898,VALID,0,VALID,23.5169,VALID,37,VALID,0,
2008-11-30, 03:06:04,VALID,1009.77,VALID,0,VALID,94.5593,VALID,0,VALID,23.5381,VALID,37,VALID,0,
2008-11-30, 03:07:04,VALID,1009.76,VALID,0,VALID,94.5593,VALID,0,VALID,23.5381,VALID,70,VALID,0,
2008-11-30, 03:08:04,VALID,1009.77,VALID,0,VALID,94.5822,VALID,0,VALID,23.5186,VALID,162,VALID,0.0429688,
2008-11-30, 03:09:04,VALID,1009.74,VALID,0,VALID,94.6051,VALID,0.105969,VALID,23.5169,VALID,163,VALID,0.394141,
2008-11-30, 03:10:04,VALID,1009.73,VALID,0,VALID,94.6356,VALID,0,VALID,23.5558,VALID,163,VALID,0.202344,
2008-11-30, 03:11:04,VALID,1009.74,VALID,0,VALID,94.6585,VALID,0,VALID,23.5381,VALID,163,VALID,0.376953,
2008-11-30, 03:12:04,VALID,1009.73,VALID,0,VALID,94.6737,VALID,0,VALID,23.5381,VALID,163,VALID,0.290234,
2008-11-30, 03:13:04,VALID,1009.73,VALID,0,VALID,94.6814,VALID,0,VALID,23.5186,VALID,163,VALID,0.255859,
2008-11-30, 03:14:04,VALID,1009.74,VALID,0,VALID,94.7042,VALID,0.105969,VALID,23.5186,VALID,163,VALID,0.0515625,
2008-11-30, 03:15:04,VALID,1009.73,VALID,0,VALID,94.6737,VALID,0.105969,VALID,23.4992,VALID,163,VALID,0,
2008-11-30, 03:16:04,VALID,1009.7,VALID,0,VALID,94.689,VALID,0,VALID,23.4779,VALID,163,VALID,0,
2008-11-30, 03:17:04,VALID,1009.71,VALID,0,VALID,94.7195,VALID,0,VALID,23.4992,VALID,163,VALID,0.0015625,
2008-11-30, 03:18:04,VALID,1009.71,VALID,0,VALID,94.7042,VALID,0,VALID,23.4992,VALID,126,VALID,0.307031,
2008-11-30, 03:19:04,VALID,1009.71,VALID,0,VALID,94.7347,VALID,0,VALID,23.4797,VALID,87,VALID,0.323828,
2008-11-30, 03:20:04,VALID,1009.72,VALID,0,VALID,94.7347,VALID,0,VALID,23.4779,VALID,88,VALID,0.275391,
2008-11-30, 03:21:04,VALID,1009.72,VALID,0,VALID,94.7805,VALID,0,VALID,23.4797,VALID,56,VALID,0.458203,
2008-11-30, 03:22:04,VALID,1009.72,VALID,0,VALID,94.7881,VALID,0,VALID,23.4584,VALID,44,VALID,0.347656,
2008-11-30, 03:23:04,VALID,1009.71,VALID,0,VALID,94.811,VALID,0,VALID,23.4797,VALID,42,VALID,0.182031,
2008-11-30, 03:24:04,VALID,1009.71,VALID,0,VALID,94.7881,VALID,0,VALID,23.4797,VALID,42,VALID,0.150781,
2008-11-30, 03:25:04,VALID,1009.7,VALID,0,VALID,94.811,VALID,0,VALID,23.4602,VALID,42,VALID,0.280078,
2008-11-30, 03:26:04,VALID,1009.68,VALID,0,VALID,94.811,VALID,0,VALID,23.4407,VALID,42,VALID,0.0195313,
2008-11-30, 03:27:04,VALID,1009.68,VALID,0,VALID,94.7957,VALID,0,VALID,23.4407,VALID,42,VALID,0,
2008-11-30, 03:28:04,VALID,1009.69,VALID,0,VALID,94.811,VALID,0,VALID,23.4407,VALID,42,VALID,0,
2008-11-30, 03:29:04,VALID,1009.67,VALID,0,VALID,94.8034,VALID,0,VALID,23.4017,VALID,42,VALID,0,
2008-11-30, 03:30:04,VALID,1009.66,VALID,0,VALID,94.7729,VALID,0,VALID,23.3823,VALID,42,VALID,0,
2008-11-30, 03:31:04,VALID,1009.68,VALID,0,VALID,94.7957,VALID,0,VALID,23.3823,VALID,42,VALID,0,
2008-11-30, 03:32:04,VALID,1009.64,VALID,0,VALID,94.7805,VALID,0,VALID,23.3433,VALID,42,VALID,0,
2008-11-30, 03:33:04,VALID,1009.67,VALID,0,VALID,94.7881,VALID,0,VALID,23.3628,VALID,42,VALID,0,
2008-11-30, 03:34:04,VALID,1009.68,VALID,0,VALID,94.7652,VALID,0,VALID,23.3628,VALID,42,VALID,0,
2008-11-30, 03:35:04,VALID,1009.68,VALID,0,VALID,94.7881,VALID,0,VALID,23.3415,VALID,42,VALID,0,
2008-11-30, 03:36:04,VALID,1009.67,VALID,0,VALID,94.811,VALID,0,VALID,23.361,VALID,42,VALID,0,
2008-11-30, 03:37:04,VALID,1009.65,VALID,0,VALID,94.8262,VALID,0,VALID,23.3628,VALID,42,VALID,0,
2008-11-30, 03:38:04,VALID,1009.67,VALID,0,VALID,94.8491,VALID,0,VALID,23.3823,VALID,42,VALID,0,
2008-11-30, 03:39:04,VALID,1009.65,VALID,0,VALID,94.8568,VALID,0,VALID,23.3823,VALID,42,VALID,0,
2008-11-30, 03:40:04,VALID,1009.67,VALID,0,VALID,94.8644,VALID,0,VALID,23.3823,VALID,42,VALID,0,
2008-11-30, 03:41:04,VALID,1009.68,VALID,0,VALID,94.8644,VALID,0,VALID,23.3823,VALID,42,VALID,0,
2008-11-30, 03:42:04,VALID,1009.71,VALID,0,VALID,94.8873,VALID,0,VALID,23.4017,VALID,42,VALID,0,
2008-11-30, 03:43:04,VALID,1009.71,VALID,0,VALID,94.8873,VALID,0,VALID,23.3823,VALID,42,VALID,0,
2008-11-30, 03:44:04,VALID,1009.73,VALID,0,VALID,94.9254,VALID,0,VALID,23.3415,VALID,42,VALID,0,
2008-11-30, 03:45:04,VALID,1009.75,VALID,0,VALID,94.9101,VALID,0,VALID,23.3415,VALID,42,VALID,0,
2008-11-30, 03:46:04,VALID,1009.76,VALID,0,VALID,94.933,VALID,0,VALID,23.3628,VALID,42,VALID,0.00234375,
2008-11-30, 03:47:04,VALID,1009.78,VALID,0,VALID,94.9254,VALID,0,VALID,23.3823,VALID,42,VALID,0.210938,
2008-11-30, 03:48:04,VALID,1009.78,VALID,0,VALID,94.933,VALID,0,VALID,23.3823,VALID,42,VALID,0.0703125,
2008-11-30, 03:49:04,VALID,1009.79,VALID,0,VALID,94.9483,VALID,0,VALID,23.3628,VALID,42,VALID,0,
2008-11-30, 03:50:04,VALID,1009.78,VALID,0,VALID,94.9406,VALID,0,VALID,23.3823,VALID,42,VALID,0.00117188,
2008-11-30, 03:51:04,VALID,1009.78,VALID,0,VALID,94.9406,VALID,0,VALID,23.3823,VALID,42,VALID,0.10625,
2008-11-30, 03:52:04,VALID,1009.74,VALID,0,VALID,94.9406,VALID,0,VALID,23.3628,VALID,42,VALID,0.109375,
2008-11-30, 03:53:04,VALID,1009.71,VALID,0,VALID,94.9406,VALID,0,VALID,23.3628,VALID,42,VALID,0,
2008-11-30, 03:54:04,VALID,1009.71,VALID,0,VALID,94.9406,VALID,0,VALID,23.3433,VALID,42,VALID,0.0558594,
2008-11-30, 03:55:04,VALID,1009.69,VALID,0,VALID,94.9254,VALID,0,VALID,23.3433,VALID,42,VALID,0,